カタログに戻る

STARLINK-36186

運用中通信VLEO
NORAD 67165·PAYLOAD·🇺🇸 United States

打ち上げ Dec 17, 2025 から Cape Canaveral Space Force Station

Loading…

次のパス (今後24時間)

TLE

最新Source: CelesTrak SupGP

元期: Sep 15, 2026, 04:04 UTC

1 67165C 25303C   26258.16993056  .00025923  00000+0  93869-3 0  2586
2 67165  43.0016 320.3139 0001398 259.0660 236.4616 15.27573427    13

AllMySatでSTARLINK-36186をリアルタイム追跡

Download on the App Store